Time,TemperatureF,DewpointF,PressureIn,WindDirection,WindDirectionDegrees,WindSpeedMPH,WindSpeedGustMPH,Humidity,HourlyPrecipIn,Conditions,Clouds,dailyrainin,SoftwareType,DateUTC
2013-02-01 00:00:00,27.7,-10.3,29.36,West,274,4.0,14.1,18,0.00,,---,0.16,VWS V13.01,2013-02-01 05:00:00,
2013-02-01 00:02:00,27.5,-10.4,29.36,West,274,6.5,10.3,18,0.00,,---,0.00,VWS V13.01,2013-02-01 05:02:00,
2013-02-01 00:03:00,27.5,-10.4,29.36,West,274,3.1,10.3,18,0.00,,---,0.00,VWS V13.01,2013-02-01 05:03:00,
2013-02-01 00:08:00,27.3,-10.6,29.36,WNW,298,7.4,10.3,18,0.00,,---,0.00,VWS V13.01,2013-02-01 05:08:00,
2013-02-01 00:14:00,27.1,-10.7,29.36,WSW,250,3.6,10.3,18,0.00,,---,0.00,VWS V13.01,2013-02-01 05:14:00,
2013-02-01 00:19:00,27.1,-10.7,29.36,West,271,4.5,11.2,18,0.00,,---,0.00,VWS V13.01,2013-02-01 05:19:00,
2013-02-01 00:24:00,27.0,-10.9,29.36,WSW,257,4.5,12.5,18,0.00,,---,0.00,VWS V13.01,2013-02-01 05:24:00,
2013-02-01 00:29:00,27.1,-10.7,29.36,West,261,5.1,17.2,18,0.00,,---,0.00,VWS V13.01,2013-02-01 05:29:00,
2013-02-01 00:34:00,27.0,-10.9,29.36,WNW,290,7.4,17.2,18,0.00,,---,0.00,VWS V13.01,2013-02-01 05:34:00,
2013-02-01 00:39:00,27.1,-10.7,29.36,NW,315,6.0,17.2,18,0.00,,---,0.00,VWS V13.01,2013-02-01 05:39:00,
2013-02-01 00:45:00,27.0,-10.9,29.36,West,270,2.7,7.8,18,0.00,,---,0.00,VWS V13.01,2013-02-01 05:45:00,
2013-02-01 00:50:00,27.0,-10.9,29.36,WNW,289,4.5,10.7,18,0.00,,---,0.00,VWS V13.01,2013-02-01 05:50:00,
2013-02-01 00:55:00,26.8,-11.0,29.36,SW,229,2.7,10.7,18,0.00,,---,0.00,VWS V13.01,2013-02-01 05:55:00,
2013-02-01 01:00:00,26.8,-11.0,29.36,West,277,6.5,6.5,18,0.00,,---,0.00,VWS V13.01,2013-02-01 06:00:00,
2013-02-01 01:05:00,26.8,-11.0,29.36,WNW,300,3.1,10.7,18,0.00,,---,0.00,VWS V13.01,2013-02-01 06:05:00,
2013-02-01 01:10:00,26.8,-11.0,29.36,West,274,3.6,13.6,18,0.00,,---,0.00,VWS V13.01,2013-02-01 06:10:00,
2013-02-01 01:15:00,26.8,-11.0,29.39,WNW,288,5.6,13.6,18,0.00,,---,0.00,VWS V13.01,2013-02-01 06:15:00,
2013-02-01 01:21:00,26.8,-11.0,29.39,West,280,8.9,12.1,18,0.00,,---,0.00,VWS V13.01,2013-02-01 06:21:00,
2013-02-01 01:26:00,26.6,-10.1,29.39,WSW,254,3.6,12.1,19,0.00,,---,0.00,VWS V13.01,2013-02-01 06:26:00,
2013-02-01 01:31:00,26.6,-10.1,29.39,WNW,291,7.4,12.1,19,0.00,,---,0.00,VWS V13.01,2013-02-01 06:31:00,
2013-02-01 01:36:00,26.4,-10.2,29.39,WSW,237,4.0,12.1,19,0.00,,---,0.00,VWS V13.01,2013-02-01 06:36:00,
2013-02-01 01:41:00,26.6,-10.1,29.39,WNW,294,6.5,12.1,19,0.00,,---,0.00,VWS V13.01,2013-02-01 06:41:00,
2013-02-01 01:46:00,26.6,-10.1,29.39,West,266,6.5,12.1,19,0.00,,---,0.00,VWS V13.01,2013-02-01 06:46:00,
2013-02-01 01:51:00,26.6,-10.1,29.39,WNW,289,7.4,12.1,19,0.00,,---,0.00,VWS V13.01,2013-02-01 06:51:00,
2013-02-01 01:56:00,26.6,-10.1,29.39,WNW,284,4.0,12.1,19,0.00,,---,0.00,VWS V13.01,2013-02-01 06:56:00,
2013-02-01 02:01:00,26.4,-10.2,29.39,WNW,292,0.0,7.8,19,0.00,,---,0.00,VWS V13.01,2013-02-01 07:01:00,
2013-02-01 02:07:00,26.6,-10.1,29.39,NNW,330,5.1,11.6,19,0.00,,---,0.00,VWS V13.01,2013-02-01 07:07:00,
2013-02-01 02:12:00,26.4,-10.2,29.39,West,279,3.1,11.6,19,0.00,,---,0.00,VWS V13.01,2013-02-01 07:12:00,
2013-02-01 02:17:00,26.2,-10.4,29.39,WSW,244,3.6,11.6,19,0.00,,---,0.00,VWS V13.01,2013-02-01 07:17:00,
2013-02-01 02:22:00,26.1,-10.5,29.39,West,267,9.8,9.8,19,0.00,,---,0.00,VWS V13.01,2013-02-01 07:22:00,
2013-02-01 02:27:00,26.2,-10.4,29.39,SW,217,5.6,10.7,19,0.00,,---,0.00,VWS V13.01,2013-02-01 07:27:00,
2013-02-01 02:32:00,26.4,-10.2,29.39,West,265,2.7,13.0,19,0.00,,---,0.00,VWS V13.01,2013-02-01 07:32:00,
2013-02-01 02:37:00,26.4,-10.2,29.39,WSW,258,5.1,13.0,19,0.00,,---,0.00,VWS V13.01,2013-02-01 07:37:00,
2013-02-01 02:42:00,26.4,-10.2,29.39,WNW,285,6.5,7.8,19,0.00,,---,0.00,VWS V13.01,2013-02-01 07:42:00,
2013-02-01 02:48:00,26.2,-10.4,29.39,WSW,256,6.5,10.3,19,0.00,,---,0.00,VWS V13.01,2013-02-01 07:48:00,
2013-02-01 02:53:00,26.2,-10.4,29.39,NW,308,4.7,10.7,19,0.00,,---,0.00,VWS V13.01,2013-02-01 07:53:00,
2013-02-01 02:58:00,26.2,-10.4,29.39,West,262,0.0,10.7,19,0.00,,---,0.00,VWS V13.01,2013-02-01 07:58:00,
2013-02-01 03:03:00,26.2,-10.4,29.39,NW,310,0.0,9.8,19,0.00,,---,0.00,VWS V13.01,2013-02-01 08:03:00,
2013-02-01 03:08:00,26.1,-10.5,29.39,West,271,3.6,9.8,19,0.00,,---,0.00,VWS V13.01,2013-02-01 08:08:00,
2013-02-01 03:14:00,26.1,-10.5,29.39,WSW,243,6.0,9.8,19,0.00,,---,0.00,VWS V13.01,2013-02-01 08:14:00,
2013-02-01 03:19:00,26.1,-10.5,29.39,West,270,5.1,9.8,19,0.00,,---,0.00,VWS V13.01,2013-02-01 08:19:00,
2013-02-01 03:24:00,25.9,-10.7,29.39,West,266,6.5,8.3,19,0.00,,---,0.00,VWS V13.01,2013-02-01 08:24:00,
2013-02-01 03:29:00,25.9,-10.7,29.39,West,274,7.8,11.2,19,0.00,,---,0.00,VWS V13.01,2013-02-01 08:29:00,
2013-02-01 03:34:00,25.9,-10.7,29.39,WNW,283,3.1,11.2,19,0.00,,---,0.00,VWS V13.01,2013-02-01 08:34:00,
2013-02-01 03:39:00,25.5,-11.0,29.39,WSW,247,0.0,11.2,19,0.00,,---,0.00,VWS V13.01,2013-02-01 08:39:00,
2013-02-01 03:45:00,25.7,-10.9,29.39,WSW,238,8.7,11.6,19,0.00,,---,0.00,VWS V13.01,2013-02-01 08:45:00,
2013-02-01 03:50:00,25.7,-10.9,29.39,WSW,245,0.0,11.6,19,0.00,,---,0.00,VWS V13.01,2013-02-01 08:50:00,
2013-02-01 03:55:00,25.5,-11.0,29.39,NW,322,0.0,11.6,19,0.00,,---,0.00,VWS V13.01,2013-02-01 08:55:00,
2013-02-01 04:00:00,25.5,-11.0,29.39,West,273,5.1,5.1,19,0.00,,---,0.00,VWS V13.01,2013-02-01 09:00:00,
2013-02-01 04:05:00,25.3,-11.1,29.39,WSW,255,4.0,7.4,19,0.00,,---,0.00,VWS V13.01,2013-02-01 09:05:00,
2013-02-01 04:10:00,25.3,-11.1,29.39,West,262,0.0,7.4,19,0.00,,---,0.00,VWS V13.01,2013-02-01 09:10:00,
2013-02-01 04:16:00,25.3,-11.1,29.39,WSW,247,0.0,7.4,19,0.00,,---,0.00,VWS V13.01,2013-02-01 09:16:00,
2013-02-01 04:21:00,25.0,-11.4,29.39,WSW,257,0.0,5.6,19,0.00,,---,0.00,VWS V13.01,2013-02-01 09:21:00,
2013-02-01 04:26:00,25.0,-11.4,29.39,WSW,247,4.5,8.9,19,0.00,,---,0.00,VWS V13.01,2013-02-01 09:26:00,
2013-02-01 04:31:00,25.2,-11.3,29.39,SW,221,0.0,8.9,19,0.00,,---,0.00,VWS V13.01,2013-02-01 09:31:00,
2013-02-01 04:36:00,25.0,-11.4,29.39,West,266,2.7,8.9,19,0.00,,---,0.00,VWS V13.01,2013-02-01 09:36:00,
2013-02-01 04:41:00,24.8,-11.6,29.39,West,278,0.0,4.5,19,0.00,,---,0.00,VWS V13.01,2013-02-01 09:41:00,
2013-02-01 04:46:00,24.8,-11.6,29.39,WSW,251,0.0,4.7,19,0.00,,---,0.00,VWS V13.01,2013-02-01 09:46:00,
2013-02-01 04:51:00,24.8,-11.6,29.39,West,267,3.6,6.0,19,0.00,,---,0.00,VWS V13.01,2013-02-01 09:51:00,
2013-02-01 04:56:00,24.8,-11.6,29.39,West,261,3.1,6.0,19,0.00,,---,0.00,VWS V13.01,2013-02-01 09:56:00,
2013-02-01 05:01:00,24.8,-11.6,29.39,West,260,0.0,0.0,19,0.00,,---,0.00,VWS V13.01,2013-02-01 10:01:00,
2013-02-01 05:07:00,24.6,-11.8,29.39,WSW,247,0.0,6.5,19,0.00,,---,0.00,VWS V13.01,2013-02-01 10:07:00,
2013-02-01 05:12:00,24.6,-11.8,29.39,WSW,243,3.6,8.7,19,0.00,,---,0.00,VWS V13.01,2013-02-01 10:12:00,
2013-02-01 05:17:00,25.0,-11.4,29.39,West,264,4.0,8.7,19,0.00,,---,0.00,VWS V13.01,2013-02-01 10:17:00,
2013-02-01 05:22:00,25.0,-11.4,29.39,WSW,246,5.1,5.1,19,0.00,,---,0.00,VWS V13.01,2013-02-01 10:22:00,
2013-02-01 05:27:00,25.2,-11.3,29.39,West,267,0.0,6.0,19,0.00,,---,0.00,VWS V13.01,2013-02-01 10:27:00,
2013-02-01 05:32:00,25.3,-11.1,29.39,West,276,4.7,10.3,19,0.00,,---,0.00,VWS V13.01,2013-02-01 10:32:00,
2013-02-01 05:37:00,25.3,-11.1,29.39,WSW,249,3.6,10.3,19,0.00,,---,0.00,VWS V13.01,2013-02-01 10:37:00,
2013-02-01 05:42:00,25.5,-11.0,29.39,NW,316,0.0,4.5,19,0.00,,---,0.00,VWS V13.01,2013-02-01 10:42:00,
2013-02-01 05:47:00,25.7,-10.9,29.42,WSW,241,4.0,8.3,19,0.00,,---,0.00,VWS V13.01,2013-02-01 10:47:00,
2013-02-01 05:53:00,25.9,-10.7,29.42,West,260,6.5,8.3,19,0.00,,---,0.00,VWS V13.01,2013-02-01 10:53:00,
2013-02-01 05:58:00,26.1,-10.5,29.42,West,279,6.0,8.7,19,0.00,,---,0.00,VWS V13.01,2013-02-01 10:58:00,
2013-02-01 06:03:00,26.2,-10.4,29.42,West,260,0.0,9.4,19,0.00,,---,0.00,VWS V13.01,2013-02-01 11:03:00,
2013-02-01 06:08:00,26.2,-10.4,29.42,WSW,246,7.4,10.7,19,0.00,,---,0.00,VWS V13.01,2013-02-01 11:08:00,
2013-02-01 06:13:00,26.4,-10.2,29.42,West,264,4.5,10.7,19,0.00,,---,0.00,VWS V13.01,2013-02-01 11:13:00,
2013-02-01 06:18:00,26.4,-10.2,29.42,West,259,3.1,10.7,19,0.00,,---,0.00,VWS V13.01,2013-02-01 11:18:00,
2013-02-01 06:23:00,26.4,-10.2,29.42,WSW,252,5.6,8.9,19,0.00,,---,0.00,VWS V13.01,2013-02-01 11:23:00,
2013-02-01 06:29:00,26.4,-10.2,29.42,West,260,5.1,8.9,19,0.00,,---,0.00,VWS V13.01,2013-02-01 11:29:00,
2013-02-01 06:34:00,26.2,-10.4,29.42,WNW,284,5.1,8.9,19,0.00,,---,0.00,VWS V13.01,2013-02-01 11:34:00,
2013-02-01 06:39:00,26.1,-10.5,29.42,WSW,257,4.0,8.9,19,0.00,,---,0.00,VWS V13.01,2013-02-01 11:39:00,
2013-02-01 06:44:00,25.9,-10.7,29.42,WSW,258,5.6,14.5,19,0.00,,---,0.00,VWS V13.01,2013-02-01 11:44:00,
2013-02-01 06:49:00,25.9,-10.7,29.45,West,270,3.6,14.5,19,0.00,,---,0.00,VWS V13.01,2013-02-01 11:49:00,
2013-02-01 06:54:00,25.7,-10.9,29.45,WNW,288,8.3,14.5,19,0.00,,---,0.00,VWS V13.01,2013-02-01 11:54:00,
2013-02-01 07:00:00,25.7,-10.9,29.45,West,269,5.1,14.5,19,0.00,,---,0.00,VWS V13.01,2013-02-01 12:00:00,
2013-02-01 07:05:00,25.5,-11.0,29.45,West,276,3.6,7.8,19,0.00,,---,0.00,VWS V13.01,2013-02-01 12:05:00,
2013-02-01 07:10:00,25.3,-11.1,29.45,WNW,283,6.5,11.2,19,0.00,,---,0.00,VWS V13.01,2013-02-01 12:10:00,
2013-02-01 07:15:00,25.5,-11.0,29.45,SW,232,4.5,11.2,19,0.00,,---,0.00,VWS V13.01,2013-02-01 12:15:00,
2013-02-01 07:20:00,25.3,-11.1,29.45,NW,318,0.0,0.0,19,0.00,,---,0.00,VWS V13.01,2013-02-01 12:20:00,
2013-02-01 07:25:00,25.3,-11.1,29.45,WSW,256,0.0,6.0,19,0.00,,---,0.00,VWS V13.01,2013-02-01 12:25:00,
2013-02-01 07:30:00,25.2,-11.3,29.45,WNW,288,4.7,8.9,19,0.00,,---,0.00,VWS V13.01,2013-02-01 12:30:00,
2013-02-01 07:35:00,25.3,-11.1,29.45,West,267,4.7,9.4,19,0.00,,---,0.00,VWS V13.01,2013-02-01 12:35:00,
2013-02-01 07:41:00,25.2,-11.3,29.45,WSW,251,0.0,4.7,19,0.00,,---,0.00,VWS V13.01,2013-02-01 12:41:00,
2013-02-01 07:46:00,25.2,-11.3,29.45,WSW,251,4.7,6.5,19,0.00,,---,0.00,VWS V13.01,2013-02-01 12:46:00,
2013-02-01 07:51:00,25.3,-11.1,29.45,West,280,5.1,6.5,19,0.00,,---,0.00,VWS V13.01,2013-02-01 12:51:00,
2013-02-01 07:56:00,25.7,-10.9,29.45,WSW,246,4.0,6.5,19,0.00,,---,0.00,VWS V13.01,2013-02-01 12:56:00,
2013-02-01 08:01:00,25.7,-10.9,29.48,SW,236,0.0,4.7,19,0.00,,---,0.00,VWS V13.01,2013-02-01 13:01:00,
2013-02-01 08:06:00,25.9,-10.7,29.48,WNW,288,3.6,7.8,19,0.00,,---,0.00,VWS V13.01,2013-02-01 13:06:00,
2013-02-01 08:11:00,25.9,-10.7,29.48,SW,218,7.8,8.7,19,0.00,,---,0.00,VWS V13.01,2013-02-01 13:11:00,
2013-02-01 08:16:00,26.1,-10.5,29.48,WSW,246,9.8,9.8,19,0.00,,---,0.00,VWS V13.01,2013-02-01 13:16:00,
2013-02-01 08:21:00,26.2,-10.4,29.48,West,278,4.7,6.9,19,0.00,,---,0.00,VWS V13.01,2013-02-01 13:21:00,
2013-02-01 08:27:00,26.6,-10.1,29.48,WNW,293,6.0,8.7,19,0.00,,---,0.00,VWS V13.01,2013-02-01 13:27:00,
2013-02-01 08:32:00,27.1,-10.7,29.45,WNW,290,5.1,9.4,18,0.00,,---,0.00,VWS V13.01,2013-02-01 13:32:00,
2013-02-01 08:37:00,27.9,-10.1,29.45,West,281,4.0,9.4,18,0.00,,---,0.00,VWS V13.01,2013-02-01 13:37:00,
2013-02-01 08:42:00,28.6,-9.5,29.45,NNW,333,2.7,5.1,18,0.00,,---,0.00,VWS V13.01,2013-02-01 13:42:00,
2013-02-01 08:47:00,28.2,-9.8,29.45,WNW,285,3.6,7.8,18,0.00,,---,0.00,VWS V13.01,2013-02-01 13:47:00,
2013-02-01 08:52:00,27.9,-10.1,29.45,NW,318,0.0,10.3,18,0.00,,---,0.00,VWS V13.01,2013-02-01 13:52:00,
2013-02-01 08:57:00,28.4,-9.7,29.45,WNW,291,4.5,13.2,18,0.00,,---,0.00,VWS V13.01,2013-02-01 13:57:00,
2013-02-01 09:03:00,28.2,-9.8,29.45,WNW,283,4.5,9.8,18,0.00,,---,0.00,VWS V13.01,2013-02-01 14:03:00,
2013-02-01 09:08:00,28.2,-9.8,29.45,NNW,334,7.8,10.3,18,0.00,,---,0.00,VWS V13.01,2013-02-01 14:08:00,
2013-02-01 09:13:00,28.6,-9.5,29.45,WNW,296,8.7,10.3,18,0.00,,---,0.00,VWS V13.01,2013-02-01 14:13:00,
2013-02-01 09:18:00,28.6,-9.5,29.45,WNW,303,4.5,12.1,18,0.00,,---,0.00,VWS V13.01,2013-02-01 14:18:00,
2013-02-01 09:23:00,28.6,-9.5,29.45,WNW,283,3.1,10.7,18,0.00,,---,0.00,VWS V13.01,2013-02-01 14:23:00,
2013-02-01 09:28:00,28.6,-9.5,29.45,West,259,5.6,10.7,18,0.00,,---,0.00,VWS V13.01,2013-02-01 14:28:00,
2013-02-01 09:33:00,28.6,-9.5,29.45,NW,308,0.0,10.7,18,0.00,,---,0.00,VWS V13.01,2013-02-01 14:33:00,
2013-02-01 09:38:00,29.1,-9.1,29.45,WNW,293,2.7,11.2,18,0.00,,---,0.00,VWS V13.01,2013-02-01 14:38:00,
2013-02-01 09:44:00,29.1,-9.1,29.45,West,269,4.0,8.7,18,0.00,,---,0.00,VWS V13.01,2013-02-01 14:44:00,
2013-02-01 09:49:00,29.3,-8.9,29.45,NW,315,0.0,8.9,18,0.00,,---,0.00,VWS V13.01,2013-02-01 14:49:00,
2013-02-01 09:54:00,29.5,-8.8,29.45,NW,321,4.7,8.9,18,0.00,,---,0.00,VWS V13.01,2013-02-01 14:54:00,
2013-02-01 09:59:00,29.7,-8.6,29.45,WSW,248,4.5,9.4,18,0.00,,---,0.00,VWS V13.01,2013-02-01 14:59:00,
2013-02-01 10:04:00,29.7,-8.6,29.45,WNW,287,0.0,8.9,18,0.00,,---,0.00,VWS V13.01,2013-02-01 15:04:00,
2013-02-01 10:09:00,30.2,-8.2,29.45,WSW,238,6.9,8.9,18,0.00,,---,0.00,VWS V13.01,2013-02-01 15:09:00,
2013-02-01 10:14:00,30.4,-8.0,29.45,West,276,4.7,8.9,18,0.00,,---,0.00,VWS V13.01,2013-02-01 15:14:00,
2013-02-01 10:19:00,31.1,-7.4,29.48,WNW,286,3.1,8.9,18,0.00,,---,0.00,VWS V13.01,2013-02-01 15:19:00,
2013-02-01 10:25:00,31.6,-7.0,29.48,West,259,9.8,9.8,18,0.00,,---,0.00,VWS V13.01,2013-02-01 15:25:00,
2013-02-01 10:30:00,32.2,-6.6,29.48,WNW,295,7.4,9.8,18,0.00,,---,0.00,VWS V13.01,2013-02-01 15:30:00,
2013-02-01 10:35:00,32.4,-6.4,29.48,NNW,345,5.1,12.5,18,0.00,,---,0.00,VWS V13.01,2013-02-01 15:35:00,
2013-02-01 10:40:00,32.5,-6.2,29.48,NW,306,7.8,7.8,18,0.00,,---,0.00,VWS V13.01,2013-02-01 15:40:00,
2013-02-01 10:45:00,31.5,-7.2,29.48,NW,317,6.5,10.7,18,0.00,,---,0.00,VWS V13.01,2013-02-01 15:45:00,
2013-02-01 10:50:00,32.2,-6.6,29.48,West,267,4.0,10.7,18,0.00,,---,0.00,VWS V13.01,2013-02-01 15:50:00,
2013-02-01 10:55:00,32.7,-6.1,29.48,WNW,287,6.0,10.7,18,0.00,,---,0.00,VWS V13.01,2013-02-01 15:55:00,
2013-02-01 11:00:00,33.3,-5.7,29.48,WNW,286,6.0,10.7,18,0.00,,---,0.00,VWS V13.01,2013-02-01 16:00:00,
2013-02-01 11:06:00,33.1,-5.8,29.48,NW,318,6.9,10.7,18,0.00,,---,0.00,VWS V13.01,2013-02-01 16:06:00,
2013-02-01 11:11:00,32.5,-6.2,29.48,WSW,258,3.6,11.2,18,0.00,,---,0.00,VWS V13.01,2013-02-01 16:11:00,
2013-02-01 11:16:00,33.6,-5.3,29.48,WNW,293,4.7,11.2,18,0.00,,---,0.00,VWS V13.01,2013-02-01 16:16:00,
2013-02-01 11:21:00,33.6,-5.3,29.48,WNW,291,4.5,6.9,18,0.00,,---,0.00,VWS V13.01,2013-02-01 16:21:00,
2013-02-01 11:26:00,33.6,-5.3,29.48,West,275,0.0,8.7,18,0.00,,---,0.00,VWS V13.01,2013-02-01 16:26:00,
2013-02-01 11:31:00,34.7,-2.3,29.45,NW,305,8.3,9.8,20,0.00,,---,0.00,VWS V13.01,2013-02-01 16:31:00,
2013-02-01 11:36:00,36.0,-2.3,29.45,WNW,283,5.1,10.7,19,0.00,,---,0.00,VWS V13.01,2013-02-01 16:36:00,
2013-02-01 11:41:00,35.4,-1.6,29.45,WNW,295,4.0,8.7,20,0.00,,---,0.00,VWS V13.01,2013-02-01 16:41:00,
2013-02-01 11:47:00,33.6,-3.2,29.45,NW,317,6.5,12.5,20,0.00,,---,0.00,VWS V13.01,2013-02-01 16:47:00,
2013-02-01 11:52:00,33.6,-5.3,29.45,WNW,294,10.3,12.5,18,0.00,,---,0.00,VWS V13.01,2013-02-01 16:52:00,
2013-02-01 11:57:00,32.5,-6.2,29.45,NW,311,8.7,12.5,18,0.00,,---,0.00,VWS V13.01,2013-02-01 16:57:00,
2013-02-01 12:02:00,33.3,-5.7,29.45,North,353,0.0,3.6,18,0.00,,---,0.00,VWS V13.01,2013-02-01 17:02:00,
2013-02-01 12:07:00,33.6,-5.3,29.45,NW,315,6.9,10.7,18,0.00,,---,0.00,VWS V13.01,2013-02-01 17:07:00,
2013-02-01 12:12:00,32.0,-6.7,29.45,West,279,6.5,11.2,18,0.00,,---,0.00,VWS V13.01,2013-02-01 17:12:00,
2013-02-01 12:17:00,31.1,-7.4,29.45,North,353,8.7,12.1,18,0.00,,---,0.00,VWS V13.01,2013-02-01 17:17:00,
2013-02-01 12:22:00,31.3,-7.3,29.45,NNW,332,4.0,10.7,18,0.00,,---,0.00,VWS V13.01,2013-02-01 17:22:00,
2013-02-01 12:27:00,31.5,-7.2,29.45,WNW,296,5.6,10.7,18,0.00,,---,0.00,VWS V13.01,2013-02-01 17:27:00,
2013-02-01 12:33:00,31.1,-7.4,29.45,NNW,340,6.5,12.1,18,0.00,,---,0.00,VWS V13.01,2013-02-01 17:33:00,
2013-02-01 12:38:00,30.7,-7.7,29.45,NW,326,7.8,13.0,18,0.00,,---,0.00,VWS V13.01,2013-02-01 17:38:00,
2013-02-01 12:43:00,30.6,-7.9,29.45,WNW,301,5.1,11.2,18,0.00,,---,0.00,VWS V13.01,2013-02-01 17:43:00,
2013-02-01 12:48:00,30.7,-7.7,29.45,WNW,288,4.7,11.2,18,0.00,,---,0.00,VWS V13.01,2013-02-01 17:48:00,
2013-02-01 12:53:00,30.6,-7.9,29.45,WNW,292,7.4,11.6,18,0.00,,---,0.00,VWS V13.01,2013-02-01 17:53:00,
2013-02-01 12:58:00,30.9,-7.6,29.45,WNW,286,6.5,11.6,18,0.00,,---,0.00,VWS V13.01,2013-02-01 17:58:00,
2013-02-01 13:03:00,31.8,-6.8,29.45,WNW,289,5.1,10.3,18,0.00,,---,0.00,VWS V13.01,2013-02-01 18:03:00,
2013-02-01 13:08:00,32.4,-6.4,29.45,WNW,295,6.9,10.7,18,0.00,,---,0.00,VWS V13.01,2013-02-01 18:08:00,
2013-02-01 13:14:00,31.6,-7.0,29.45,NNW,332,4.7,12.5,18,0.00,,---,0.00,VWS V13.01,2013-02-01 18:14:00,
2013-02-01 13:19:00,30.7,-7.7,29.45,NW,307,8.7,12.5,18,0.00,,---,0.00,VWS V13.01,2013-02-01 18:19:00,
2013-02-01 13:24:00,29.8,-8.5,29.45,NNW,328,3.6,9.4,18,0.00,,---,0.00,VWS V13.01,2013-02-01 18:24:00,
2013-02-01 13:29:00,29.8,-8.5,29.45,North,350,3.6,9.4,18,0.00,,---,0.00,VWS V13.01,2013-02-01 18:29:00,
2013-02-01 13:34:00,30.2,-8.2,29.45,NNW,339,2.7,10.3,18,0.00,,---,0.00,VWS V13.01,2013-02-01 18:34:00,
2013-02-01 13:39:00,30.4,-8.0,29.45,North,357,7.4,10.3,18,0.00,,---,0.00,VWS V13.01,2013-02-01 18:39:00,
2013-02-01 13:44:00,29.8,-8.5,29.45,NW,313,6.9,12.1,18,0.00,,---,0.00,VWS V13.01,2013-02-01 18:44:00,
2013-02-01 13:49:00,29.7,-8.6,29.48,NW,304,4.0,14.1,18,0.00,,---,0.00,VWS V13.01,2013-02-01 18:49:00,
2013-02-01 13:54:00,29.5,-8.8,29.48,NW,312,10.3,14.1,18,0.00,,---,0.00,VWS V13.01,2013-02-01 18:54:00,
2013-02-01 13:59:00,29.5,-8.8,29.48,West,275,8.3,14.1,18,0.00,,---,0.00,VWS V13.01,2013-02-01 18:59:00,
2013-02-01 14:05:00,28.9,-9.2,29.48,NNW,344,10.3,11.2,18,0.00,,---,0.00,VWS V13.01,2013-02-01 19:05:00,
2013-02-01 14:10:00,28.8,-9.4,29.48,WNW,285,8.9,13.6,18,0.00,,---,0.00,VWS V13.01,2013-02-01 19:10:00,
2013-02-01 14:15:00,28.6,-9.5,29.48,NNW,341,2.7,13.6,18,0.00,,---,0.00,VWS V13.01,2013-02-01 19:15:00,
2013-02-01 14:20:00,28.6,-9.5,29.48,NNW,346,7.8,8.3,18,0.00,,---,0.00,VWS V13.01,2013-02-01 19:20:00,
2013-02-01 14:25:00,28.6,-9.5,29.48,WNW,286,4.0,8.3,18,0.00,,---,0.00,VWS V13.01,2013-02-01 19:25:00,
2013-02-01 14:30:00,28.9,-9.2,29.48,WSW,251,7.4,8.3,18,0.00,,---,0.00,VWS V13.01,2013-02-01 19:30:00,
2013-02-01 14:35:00,29.3,-8.9,29.48,West,277,5.6,17.2,18,0.00,,---,0.00,VWS V13.01,2013-02-01 19:35:00,
2013-02-01 14:40:00,29.1,-9.1,29.48,NW,321,3.1,4.5,18,0.00,,---,0.00,VWS V13.01,2013-02-01 19:40:00,
2013-02-01 14:46:00,28.8,-9.4,29.51,West,277,3.6,8.3,18,0.00,,---,0.00,VWS V13.01,2013-02-01 19:46:00,
2013-02-01 14:51:00,29.1,-9.1,29.51,WNW,291,5.1,8.3,18,0.00,,---,0.00,VWS V13.01,2013-02-01 19:51:00,
2013-02-01 14:56:00,29.5,-8.8,29.51,SW,216,7.8,9.8,18,0.00,,---,0.00,VWS V13.01,2013-02-01 19:56:00,
2013-02-01 15:01:00,29.7,-8.6,29.51,WNW,301,8.7,12.5,18,0.00,,---,0.00,VWS V13.01,2013-02-01 20:01:00,
2013-02-01 15:06:00,30.2,-8.2,29.51,North,353,4.5,13.6,18,0.00,,---,0.00,VWS V13.01,2013-02-01 20:06:00,
2013-02-01 15:11:00,30.2,-8.2,29.51,WNW,283,7.4,13.6,18,0.00,,---,0.00,VWS V13.01,2013-02-01 20:11:00,
2013-02-01 15:16:00,29.8,-8.5,29.51,NNW,330,4.5,13.6,18,0.00,,---,0.00,VWS V13.01,2013-02-01 20:16:00,
2013-02-01 15:22:00,29.5,-8.8,29.51,WSW,256,11.2,11.2,18,0.00,,---,0.00,VWS V13.01,2013-02-01 20:22:00,
2013-02-01 15:27:00,29.1,-9.1,29.51,WNW,294,4.0,11.2,18,0.00,,---,0.00,VWS V13.01,2013-02-01 20:27:00,
2013-02-01 15:32:00,28.9,-9.2,29.51,WNW,294,4.7,11.2,18,0.00,,---,0.00,VWS V13.01,2013-02-01 20:32:00,
2013-02-01 15:37:00,29.3,-8.9,29.51,WNW,294,5.1,11.6,18,0.00,,---,0.00,VWS V13.01,2013-02-01 20:37:00,
2013-02-01 15:42:00,29.5,-8.8,29.51,WNW,303,4.7,8.9,18,0.00,,---,0.00,VWS V13.01,2013-02-01 20:42:00,
2013-02-01 15:47:00,29.5,-8.8,29.54,NW,309,4.5,8.9,18,0.00,,---,0.00,VWS V13.01,2013-02-01 20:47:00,
2013-02-01 15:52:00,29.1,-9.1,29.54,North,353,2.7,9.8,18,0.00,,---,0.00,VWS V13.01,2013-02-01 20:52:00,
2013-02-01 15:57:00,28.6,-9.5,29.54,West,278,7.8,13.0,18,0.00,,---,0.00,VWS V13.01,2013-02-01 20:57:00,
2013-02-01 16:03:00,28.2,-9.8,29.54,North,353,8.9,9.8,18,0.00,,---,0.00,VWS V13.01,2013-02-01 21:03:00,
2013-02-01 16:08:00,28.4,-9.7,29.54,NW,325,5.1,9.8,18,0.00,,---,0.00,VWS V13.01,2013-02-01 21:08:00,
2013-02-01 16:13:00,28.6,-9.5,29.54,West,269,4.5,12.5,18,0.00,,---,0.00,VWS V13.01,2013-02-01 21:13:00,
2013-02-01 16:18:00,28.4,-9.7,29.57,NW,314,6.0,12.5,18,0.00,,---,0.00,VWS V13.01,2013-02-01 21:18:00,
2013-02-01 16:23:00,28.4,-9.7,29.57,WNW,296,6.0,6.5,18,0.00,,---,0.00,VWS V13.01,2013-02-01 21:23:00,
2013-02-01 16:29:00,28.6,-9.5,29.57,NW,306,9.8,20.6,18,0.00,,---,0.00,VWS V13.01,2013-02-01 21:29:00,
2013-02-01 16:34:00,28.6,-9.5,29.57,NNE,27,3.6,20.6,18,0.00,,---,0.00,VWS V13.01,2013-02-01 21:34:00,
2013-02-01 16:39:00,28.0,-10.0,29.57,West,278,5.6,20.6,18,0.00,,---,0.00,VWS V13.01,2013-02-01 21:39:00,
2013-02-01 16:44:00,27.7,-10.3,29.57,WNW,290,8.9,9.4,18,0.00,,---,0.00,VWS V13.01,2013-02-01 21:44:00,
2013-02-01 16:49:00,27.1,-10.7,29.57,North,349,3.6,9.4,18,0.00,,---,0.00,VWS V13.01,2013-02-01 21:49:00,
2013-02-01 16:54:00,26.8,-11.0,29.57,WNW,290,2.7,9.4,18,0.00,,---,0.00,VWS V13.01,2013-02-01 21:54:00,
2013-02-01 16:59:00,26.8,-11.0,29.57,NNW,346,7.8,11.2,18,0.00,,---,0.00,VWS V13.01,2013-02-01 21:59:00,
2013-02-01 17:04:00,26.4,-10.2,29.59,NNW,335,3.1,8.9,19,0.00,,---,0.00,VWS V13.01,2013-02-01 22:04:00,
2013-02-01 17:09:00,26.1,-10.5,29.59,WNW,285,0.0,8.9,19,0.00,,---,0.00,VWS V13.01,2013-02-01 22:09:00,
2013-02-01 17:15:00,26.1,-10.5,29.59,West,276,4.7,8.9,19,0.00,,---,0.00,VWS V13.01,2013-02-01 22:15:00,
2013-02-01 17:20:00,25.9,-10.7,29.59,NNW,332,3.1,11.6,19,0.00,,---,0.00,VWS V13.01,2013-02-01 22:20:00,
2013-02-01 17:25:00,25.7,-10.9,29.59,NNW,328,7.4,9.4,19,0.00,,---,0.00,VWS V13.01,2013-02-01 22:25:00,
2013-02-01 17:30:00,25.7,-10.9,29.59,NW,321,6.9,13.6,19,0.00,,---,0.00,VWS V13.01,2013-02-01 22:30:00,
2013-02-01 17:35:00,25.5,-11.0,29.62,North,357,8.7,13.6,19,0.00,,---,0.00,VWS V13.01,2013-02-01 22:35:00,
2013-02-01 17:40:00,25.3,-11.1,29.62,NW,306,8.3,8.3,19,0.00,,---,0.00,VWS V13.01,2013-02-01 22:40:00,
2013-02-01 17:45:00,25.2,-11.3,29.62,NW,319,4.5,9.8,19,0.00,,---,0.00,VWS V13.01,2013-02-01 22:45:00,
2013-02-01 17:50:00,25.0,-11.4,29.62,WNW,300,7.8,12.1,19,0.00,,---,0.00,VWS V13.01,2013-02-01 22:50:00,
2013-02-01 17:55:00,25.0,-11.4,29.62,NNW,328,6.0,12.1,19,0.00,,---,0.00,VWS V13.01,2013-02-01 22:55:00,
2013-02-01 18:01:00,24.8,-11.6,29.65,WNW,302,3.1,7.8,19,0.00,,---,0.00,VWS V13.01,2013-02-01 23:01:00,
2013-02-01 18:06:00,24.8,-11.6,29.65,NW,304,6.5,16.3,19,0.00,,---,0.00,VWS V13.01,2013-02-01 23:06:00,
2013-02-01 18:11:00,24.8,-11.6,29.65,NNW,344,9.4,16.3,19,0.00,,---,0.00,VWS V13.01,2013-02-01 23:11:00,
2013-02-01 18:16:00,24.8,-11.6,29.65,WNW,294,4.7,16.3,19,0.00,,---,0.00,VWS V13.01,2013-02-01 23:16:00,
2013-02-01 18:21:00,24.6,-11.8,29.65,WNW,303,6.0,6.5,19,0.00,,---,0.00,VWS V13.01,2013-02-01 23:21:00,
2013-02-01 18:26:00,24.4,-11.9,29.65,NW,304,5.6,11.2,19,0.00,,---,0.00,VWS V13.01,2013-02-01 23:26:00,
2013-02-01 18:31:00,24.4,-11.9,29.65,WNW,302,5.1,11.2,19,0.00,,---,0.00,VWS V13.01,2013-02-01 23:31:00,
2013-02-01 18:36:00,24.3,-12.1,29.65,NNE,12,6.9,11.2,19,0.00,,---,0.00,VWS V13.01,2013-02-01 23:36:00,
2013-02-01 18:41:00,24.4,-11.9,29.65,NW,308,7.8,9.8,19,0.00,,---,0.00,VWS V13.01,2013-02-01 23:41:00,
2013-02-01 18:47:00,24.4,-11.9,29.68,NNW,344,3.6,9.8,19,0.00,,---,0.00,VWS V13.01,2013-02-01 23:47:00,
2013-02-01 18:52:00,24.3,-12.1,29.68,WNW,292,8.3,9.8,19,0.00,,---,0.00,VWS V13.01,2013-02-01 23:52:00,
2013-02-01 18:57:00,24.3,-12.1,29.68,West,275,6.9,11.2,19,0.00,,---,0.00,VWS V13.01,2013-02-01 23:57:00,
2013-02-01 19:02:00,24.1,-12.2,29.68,NW,313,4.7,8.9,19,0.00,,---,0.00,VWS V13.01,2013-02-02 00:02:00,
2013-02-01 19:07:00,24.1,-12.2,29.68,West,280,3.6,12.5,19,0.00,,---,0.00,VWS V13.01,2013-02-02 00:07:00,
2013-02-01 19:12:00,24.1,-12.2,29.68,North,357,4.0,13.2,19,0.00,,---,0.00,VWS V13.01,2013-02-02 00:12:00,
2013-02-01 19:17:00,23.9,-12.4,29.68,NW,322,5.1,13.2,19,0.00,,---,0.00,VWS V13.01,2013-02-02 00:17:00,
2013-02-01 19:22:00,23.7,-12.5,29.68,WNW,298,8.3,9.4,19,0.00,,---,0.00,VWS V13.01,2013-02-02 00:22:00,
2013-02-01 19:28:00,23.5,-12.6,29.68,NNW,341,4.5,9.4,19,0.00,,---,0.00,VWS V13.01,2013-02-02 00:28:00,
2013-02-01 19:33:00,23.4,-12.8,29.71,NNW,337,6.5,9.4,19,0.00,,---,0.00,VWS V13.01,2013-02-02 00:33:00,
2013-02-01 19:38:00,23.4,-12.8,29.71,NNW,341,6.0,13.2,19,0.00,,---,0.00,VWS V13.01,2013-02-02 00:38:00,
2013-02-01 19:43:00,23.4,-12.8,29.71,NNW,327,0.0,8.3,19,0.00,,---,0.00,VWS V13.01,2013-02-02 00:43:00,
2013-02-01 19:48:00,23.4,-12.8,29.71,NW,322,10.3,14.5,19,0.00,,---,0.00,VWS V13.01,2013-02-02 00:48:00,
2013-02-01 19:53:00,23.2,-12.9,29.71,WNW,285,5.6,14.5,19,0.00,,---,0.00,VWS V13.01,2013-02-02 00:53:00,
2013-02-01 19:58:00,23.2,-12.9,29.71,NW,308,3.6,14.5,19,0.00,,---,0.00,VWS V13.01,2013-02-02 00:58:00,
2013-02-01 20:03:00,23.2,-12.9,29.71,NW,305,0.0,9.4,19,0.00,,---,0.00,VWS V13.01,2013-02-02 01:03:00,
2013-02-01 20:09:00,23.0,-12.1,29.71,WNW,297,6.0,9.4,20,0.00,,---,0.00,VWS V13.01,2013-02-02 01:09:00,
2013-02-01 20:14:00,22.8,-12.2,29.71,WNW,290,5.6,9.4,20,0.00,,---,0.00,VWS V13.01,2013-02-02 01:14:00,
2013-02-01 20:19:00,22.8,-12.2,29.71,West,278,5.6,9.4,20,0.00,,---,0.00,VWS V13.01,2013-02-02 01:19:00,
2013-02-01 20:24:00,22.8,-12.2,29.71,NNE,19,0.0,6.5,20,0.00,,---,0.00,VWS V13.01,2013-02-02 01:24:00,
2013-02-01 20:29:00,22.8,-12.2,29.71,WNW,301,4.0,6.5,20,0.00,,---,0.00,VWS V13.01,2013-02-02 01:29:00,
2013-02-01 20:34:00,22.6,-12.4,29.74,West,278,0.0,6.5,20,0.00,,---,0.00,VWS V13.01,2013-02-02 01:34:00,
2013-02-01 20:39:00,22.5,-12.5,29.74,WNW,284,4.0,6.5,20,0.00,,---,0.00,VWS V13.01,2013-02-02 01:39:00,
2013-02-01 20:44:00,22.5,-12.5,29.74,North,353,0.0,5.6,20,0.00,,---,0.00,VWS V13.01,2013-02-02 01:44:00,
2013-02-01 20:50:00,22.5,-12.5,29.74,NNW,342,0.0,6.5,20,0.00,,---,0.00,VWS V13.01,2013-02-02 01:50:00,
2013-02-01 20:55:00,22.3,-12.7,29.74,WNW,287,0.0,6.5,20,0.00,,---,0.00,VWS V13.01,2013-02-02 01:55:00,
2013-02-01 21:00:00,22.1,-12.8,29.74,WNW,286,0.0,0.0,20,0.00,,---,0.00,VWS V13.01,2013-02-02 02:00:00,
2013-02-01 21:05:00,22.1,-12.8,29.74,WSW,254,0.0,4.7,20,0.00,,---,0.00,VWS V13.01,2013-02-02 02:05:00,
2013-02-01 21:10:00,21.9,-13.0,29.74,NW,322,3.6,4.7,20,0.00,,---,0.00,VWS V13.01,2013-02-02 02:10:00,
2013-02-01 21:15:00,21.7,-13.1,29.74,NW,322,0.0,4.7,20,0.00,,---,0.00,VWS V13.01,2013-02-02 02:15:00,
2013-02-01 21:20:00,21.7,-13.1,29.74,NW,304,0.0,0.0,20,0.00,,---,0.00,VWS V13.01,2013-02-02 02:20:00,
2013-02-01 21:25:00,21.4,-13.4,29.74,WSW,246,0.0,4.5,20,0.00,,---,0.00,VWS V13.01,2013-02-02 02:25:00,
2013-02-01 21:30:00,21.4,-13.4,29.74,WSW,246,0.0,4.5,20,0.00,,---,0.00,VWS V13.01,2013-02-02 02:30:00,
2013-02-01 21:36:00,21.4,-13.4,29.74,WSW,246,0.0,4.5,20,0.00,,---,0.00,VWS V13.01,2013-02-02 02:36:00,
2013-02-01 21:41:00,21.2,-13.6,29.74,WSW,241,0.0,0.0,20,0.00,,---,0.00,VWS V13.01,2013-02-02 02:41:00,
2013-02-01 21:46:00,21.0,-13.8,29.77,WSW,241,0.0,0.0,20,0.00,,---,0.00,VWS V13.01,2013-02-02 02:46:00,
2013-02-01 21:51:00,20.8,-13.9,29.77,WSW,241,0.0,0.0,20,0.00,,---,0.00,VWS V13.01,2013-02-02 02:51:00,
2013-02-01 21:56:00,20.8,-13.9,29.77,SW,220,0.0,3.6,20,0.00,,---,0.00,VWS V13.01,2013-02-02 02:56:00,
2013-02-01 22:01:00,20.8,-13.9,29.77,WSW,245,0.0,0.0,20,0.00,,---,0.00,VWS V13.01,2013-02-02 03:01:00,
2013-02-01 22:06:00,20.8,-13.9,29.77,WSW,250,0.0,3.6,20,0.00,,---,0.00,VWS V13.01,2013-02-02 03:06:00,
2013-02-01 22:11:00,20.8,-13.9,29.77,NNW,344,4.7,5.1,20,0.00,,---,0.00,VWS V13.01,2013-02-02 03:11:00,
2013-02-01 22:17:00,21.0,-13.8,29.77,WSW,251,4.0,7.8,20,0.00,,---,0.00,VWS V13.01,2013-02-02 03:17:00,
2013-02-01 22:22:00,21.2,-13.6,29.77,West,267,6.0,6.9,20,0.00,,---,0.00,VWS V13.01,2013-02-02 03:22:00,
2013-02-01 22:27:00,21.4,-13.4,29.77,NW,314,3.6,7.8,20,0.00,,---,0.00,VWS V13.01,2013-02-02 03:27:00,
2013-02-01 22:32:00,21.6,-13.3,29.77,WSW,256,3.6,7.8,20,0.00,,---,0.00,VWS V13.01,2013-02-02 03:32:00,
2013-02-01 22:37:00,21.4,-13.4,29.77,WSW,257,0.0,7.8,20,0.00,,---,0.00,VWS V13.01,2013-02-02 03:37:00,
2013-02-01 22:43:00,21.6,-13.3,29.77,WSW,237,4.0,4.0,20,0.00,,---,0.00,VWS V13.01,2013-02-02 03:43:00,
2013-02-01 22:48:00,21.4,-13.4,29.77,West,262,0.0,8.3,20,0.00,,---,0.00,VWS V13.01,2013-02-02 03:48:00,
2013-02-01 22:53:00,21.2,-13.6,29.77,West,261,0.0,8.3,20,0.00,,---,0.00,VWS V13.01,2013-02-02 03:53:00,
2013-02-01 22:58:00,21.0,-13.8,29.77,WNW,288,3.6,8.3,20,0.00,,---,0.00,VWS V13.01,2013-02-02 03:58:00,
2013-02-01 23:03:00,21.2,-13.6,29.77,NW,313,2.7,7.8,20,0.00,,---,0.00,VWS V13.01,2013-02-02 04:03:00,
2013-02-01 23:08:00,21.2,-13.6,29.77,WSW,247,3.6,7.8,20,0.00,,---,0.00,VWS V13.01,2013-02-02 04:08:00,
2013-02-01 23:13:00,21.2,-13.6,29.77,WNW,295,0.0,7.8,20,0.00,,---,0.00,VWS V13.01,2013-02-02 04:13:00,
2013-02-01 23:19:00,21.0,-13.8,29.77,WNW,300,3.6,7.8,20,0.00,,---,0.00,VWS V13.01,2013-02-02 04:19:00,
2013-02-01 23:24:00,21.2,-13.6,29.77,WNW,289,3.1,7.8,20,0.00,,---,0.00,VWS V13.01,2013-02-02 04:24:00,
2013-02-01 23:29:00,21.4,-13.4,29.77,WNW,289,0.0,8.3,20,0.00,,---,0.00,VWS V13.01,2013-02-02 04:29:00,
2013-02-01 23:34:00,21.2,-13.6,29.80,WNW,293,0.0,8.3,20,0.00,,---,0.00,VWS V13.01,2013-02-02 04:34:00,
2013-02-01 23:39:00,21.0,-13.8,29.80,NW,304,3.1,8.3,20,0.00,,---,0.00,VWS V13.01,2013-02-02 04:39:00,
2013-02-01 23:44:00,21.0,-13.8,29.80,WNW,289,3.6,7.4,20,0.00,,---,0.00,VWS V13.01,2013-02-02 04:44:00,
2013-02-01 23:49:00,21.0,-13.8,29.80,NNW,332,0.0,8.9,20,0.00,,---,0.00,VWS V13.01,2013-02-02 04:49:00,
2013-02-01 23:55:00,20.8,-13.9,29.80,West,273,0.0,8.9,20,0.00,,---,0.00,VWS V13.01,2013-02-02 04:55:00,